Погода в Шиле

Турция     41°10′24″N   29°36′32″E
темп.,
°C
ветер,
м/с
пор.,
м/с
влажн.,
%
обл.,
%
осадки,
мм/ч
давл.,
гПа
погр.,
м
13 мая, чт
чт1300:00+13вюв4674100 0.0 1009241
03:00+13вюв457096 0.0 1008190
06:00+13вюв33645 0.0 1008141
09:00+15в11560 0.0 1008135
12:00+17св33550 0.0 1008311
15:00+17ссв23565 0.0 1008302
18:00+18всв43615 0.0 100799
21:00+16вюв44705 0.0 100843
14 мая, пт
пт1400:00+17ююз33600 0.0 100922
03:00+16ююз33624 0.0 100934
06:00+16юз33690 0.0 101038
09:00+18з34685 0.0 1011122
12:00+19с34710 0.0 1011369
15:00+19ссв34730 0.0 1012430
18:00+18всв55780 0.0 1011126
21:00+17вюв45850 0.1 101342
15 мая, сб
сб1500:00+17юз447425 0.0 101336
03:00+16ююз337593 0.0 101331
06:00+16ююз337799 0.0 101237
09:00+17ссз1275100 0.0 1013101
12:00+18всв44713 0.0 1013206
15:00+18всв677172 0.0 1011157
18:00+18в5876100 0.0 1010143
21:00+17в4683100 0.0 100969
16 мая, вс
вс1600:00+16в5677100 0.0 1008104
03:00+16всв3380100 0.0 100766
06:00+16сз2386100 0.1 100880
09:00+16ссз338462 0.1 1008144
12:00+16св348311 0.1 1008218
15:00+17ссв34800 0.1 1007242
18:00+17ссв3382100 0.1 1007251
21:00+16св339099 0.1 1008208
17 мая, пн
пн1700:00+15з33925 0.0 1008128
03:00+15з459214 0.0 1009171
06:00+15юз33900 0.0 100996
09:00+17з33815 0.0 1011225
12:00+17ссз337410 0.1 1011359
15:00+18св32692 0.1 1011317
18:00+19вюв33660 0.0 1011111
21:00+18ююв337194 0.0 101124